Location: Unspecified
(43.4680°N, 87.1740°E)
Time: 20:32:55
(UTC+00:00)

IRIDIUM 106 - Pass Details

Date: 17 April 2021
Orbit: 776 x 779 km, 86.4° (Epoch: 11 May)

Event Time Altitude Azimuth Distance (km) Brightness Sun altitude
Exits shadow 15:08:54 32° 185° (S) 1,304 5.2 -21.9°
Maximum altitude 15:11:22 86° 273° (W) 787 4.3 -22.2°
Drops below altitude 10° 15:16:38 10° 2° (N) 2,339 7.3 -22.9°
Sets 15:18:59 0° 3° (N) 3,271 8.1 -23.2°
